SCP
0 0 0 0 0 0 0 0 0 0 0 0 0 0 0 0 0 0 0 0 0 0 0 0 0 0 0 0 0 0 0 0 0 0 0 0 0 0 0 0 0 0 0 0
0 0 0 0 0 0 0 0 0 0 0 0 0 0 0 0 0 0 0 0 0 0 0 0 0 0 0 0 0 0 0 0 0 0 0 0 0 0 0 0 0 0 0 0
0 0 0 0 0 0 0 0 0 0 0 0 0 0 0 0 0 0 0 0 0 0 0 0 0 0 0 0 0 0 0 0 0 0 0 0 0 0 0 0 0 0 0 0
0 0 0 0 0 0 0 0 0 0 0 0 0 0 0 0 0 0 0 0 0 0 0 0 0 0 0 0 0 0 0 0 0 0 0 0 0 0 0 0 0 0 0 0
0 0 0 0 0 0 0 0 0 0 0 0 0 0 0 0 0 0 0 0 0 0 0 0 0 0 0 0 0 0 0 0 0 0 0 0 0 0 0 0 0 0 0 0
0 0 0 0 0 0 0 0 0 0 0 0 0 0 0 0 0 0 0 0 0 0 0 0 0 0 0 0 0 0 0 0 0 0 0 0 0 0 0 0 0 0 0 0
0 0 0 0 0 0 0 0 0 0 0 0 0 0 0 0 0 0 0 0 0 0 0 0 0 0 0 0 0 0 0 0 0 0 0 0 0 0 0 0 0 0 0 0
0 0 0 0 0 0 0 0 0 0 0 0 0 0 0 0 0 0 0 0 0 0 0 0 0 0 0 0 0 0 0 0 0 0 0 0 0 0 0 0 0 0 0 0
0 0 0 0 0 0 0 0 0 0 0 0 0 0 0 0 0 0 0 0 0 0 0 0 0 0 0 0 0 0 0 0 0 0 0 0 0 0 0 0 0 0 0 0
0 0 0 0 0 0 0 0 0 0 0 0 0 0 0 0 0 0 0 0 0 0 0 0 0 0 0 0 0 0 0 0 0 0 0 0 0 0 0 0 0 0 0 0
0 0 0 0 0 0 0 0 0 0 0 0 0 0 0 0 0 0 0 0 0 0 0 0 0 0 0 0 0 0 0 0 0 0 0 0 0 0 0 0 0 0 0 0
0 0 0 0 0 0 0 0 0 0 0 0 0 0 0 0 0 0 0 0 0 0 0 0 0 0 0 0 0 0 0 0 0 0 0 0 0 0 0 0 0 0 0 0
0 0 0 0 0 0 0 0 0 0 0 0 0 0 0 0 0 0 0 0 0 0 0 0 0 0 0 0 0 0 0 0 0 0 0 0 0 0 0 0 0 0 0 0
0 0 0 0 0 0 0 0 0 0 0 0 0 0 0 0 0 0 0 0 0 0 0 0 0 0 0 0 0 0 0 0 0 0 0 0 0 0 0 0 0 0 0 0
0 0 0 0 0 0 0 0 0 0 0 0 0 0 0 0 0 0 0 0 0 0 0 0 0 0 0 0 0 0 0 0 0 0 0 0 0 0 0 0 0 0 0 0
0 0 0 0 0 0 0 0 0 0 0 0 0 0 0 0 0 0 0 0 0 0 0 0 0 0 0 0 0 0 0 0 0 0 0 0 0 0 0 0 0 0 0 0
0 0 0 0 0 0 0 0 0 0 0 0 0 0 0 0 0 0 0 0 0 0 0 0 0 0 0 0 0 0 0 0 0 0 0 0 0 0 0 0 0 0 0 0
0 0 0 0 0 0 0 0 0 0 0 0 0 0 0 0 0 0 0 0 0 0 0 0 0 0 0 0 0 0 0 0 0 0 0 0 0 0 0 0 0 0 0 0
0 0 0 0 0 0 0 0 0 0 0 0 0 0 0 0 0 0 0 0 0 0 0 0 0 0 0 0 0 0 0 0 0 0 0 0 0 0 0 0 0 0 0 0
0 0 0 0 0 0 0 0 0 0 0 0 0 0 0 0 0 0 0 0 0 0 0 0 0 0 0 0 0 0 0 0 0 0 0 0 0 0 0 0 0 0 0 0
0 0 0 0 0 0 0 0 0 0 0 0 0 0 0 0 0 0 0 0 0 0 0 0 0 0 0 0 0 0 0 0 0 0 0 0 0 0 0 0 0 0 0 0
0 0 0 0 0 0 0 0 0 0 0 0 0 0 0 0 0 0 0 0 0 0 0 0 0 0 0 0 0 0 0 0 0 0 0 0 0 0 0 0 0 0 0 0
0 0 0 0 0 0 0 0 0 0 0 0 0 0 0 0 0 0 0 0 0 0 0 0 0 0 0 0 0 0 0 0 0 0 0 0 0 0 0 0 0 0 0 0
0 0 0 0 0 0 0 0 0 0 0 0 0 0 0 0 0 0 0 0 0 0 0 0 0 0 0 0 0 0 0 0 0 0 0 0 0 0 0 0 0 0 0 0
0 0 0 0 0 0 0 0 0 0 0 0 0 0 0 0 0 0 0 0 0 0 0 0 0 0 0 0 0 0 0 0 0 0 0 0 0 0 0 0 0 0 0 0
0 0 0 0 0 0 0 0 0 0 0 0 0 0 0 0 0 0 0 0 0 0 0 0 0 0 0 0 0 0 0 0 0 0 0 0 0 0 0 0 0 0 0 0
Wind_Speed
3 4 4 4 4 3 2 3 3 1 2 4 4 4 4 5 6 7 7 7 7 7 6 6 5 4 4 4 4 4 4 4 3 3 2 2 1 1 1 1 1 2 2 2
4 4 3 2 4 5 5 5 3 2 2 3 3 5 4 5 7 7 7 7 8 7 7 7 6 6 5 5 4 5 5 5 4 3 2 1 1 1 0 0 1 2 2 2
4 0 2 5 6 6 6 5 4 3 3 5 4 5 5 6 7 6 7 7 7 7 7 7 7 6 6 5 5 4 5 5 5 4 2 2 2 1 2 2 1 1 2 2
3 2 3 5 6 6 4 3 4 5 6 3 5 4 4 5 6 7 8 8 8 7 7 7 7 7 6 6 5 5 5 5 5 5 4 4 3 2 2 1 1 2 2 3
3 2 4 5 4 5 1 1 3 4 5 5 5 6 2 4 5 6 8 8 8 8 8 8 8 7 6 6 5 5 5 5 5 5 5 4 3 2 2 2 3 3 2 3
3 2 3 2 1 3 4 4 4 5 5 5 4 6 2 3 3 3 6 7 8 8 8 8 7 6 6 6 5 5 5 4 4 4 5 5 4 4 3 3 3 3 2 2
5 5 4 3 4 5 7 6 4 5 5 2 2 6 3 1 1 3 4 6 7 8 8 8 7 6 6 6 6 6 5 5 5 5 5 5 5 5 5 4 4 3 3 3
5 5 5 4 5 5 7 7 5 3 3 1 4 5 1 1 1 2 3 4 6 7 7 7 8 7 7 7 6 6 6 5 5 5 5 4 4 3 3 4 3 3 3 2
4 3 3 2 3 4 5 5 4 6 4 5 3 3 3 3 3 3 3 4 5 7 7 7 7 7 7 7 7 7 6 6 5 5 5 4 4 4 4 3 3 2 2 2
4 3 3 3 4 2 4 3 4 6 5 5 3 4 2 3 3 3 3 4 4 5 6 7 7 7 7 6 6 6 6 6 6 5 4 4 4 4 4 3 3 3 2 2
6 5 4 5 6 5 5 5 5 4 5 5 4 0 1 2 1 3 3 3 4 5 5 6 6 6 6 6 6 6 6 6 5 5 4 4 4 4 4 3 3 3 2 3
5 5 4 4 2 3 5 5 7 6 4 5 6 2 3 1 1 2 2 2 3 4 4 5 5 6 6 6 6 5 5 5 5 5 4 4 4 4 4 4 4 3 3 3
5 6 5 5 6 5 5 4 6 6 6 6 7 3 3 1 2 2 2 2 2 3 4 5 5 5 6 6 6 5 5 5 4 4 4 4 4 4 4 4 4 3 3 3
5 7 7 6 3 3 5 6 7 8 7 8 9 8 5 4 4 4 3 2 2 3 4 4 5 5 5 6 6 5 5 4 4 4 4 4 4 4 4 3 3 3 3 3
6 7 6 6 4 5 7 8 8 11 10 10 9 9 8 6 5 4 3 2 3 4 4 4 4 5 5 5 5 5 5 5 5 5 5 4 4 4 4 3 3 3 3 3
4 6 6 7 6 7 8 9 9 10 10 11 10 9 5 5 4 3 2 2 3 4 4 4 4 4 5 6 5 5 5 5 5 5 5 4 4 4 4 4 3 3 3 4
4 6 7 7 4 6 8 6 7 6 5 7 8 5 3 4 4 3 2 2 3 3 3 3 4 4 4 5 5 5 5 5 5 5 4 4 4 4 4 4 3 4 4 3
6 7 6 6 6 9 0 2 2 5 4 4 5 4 4 4 4 3 2 3 3 3 3 3 3 3 3 3 4 4 4 4 5 4 4 4 4 4 4 4 4 4 4 4
6 7 6 6 8 7 2 1 2 4 3 2 4 4 3 3 4 2 1 3 3 2 2 2 2 2 2 3 4 4 4 4 4 4 4 4 4 4 4 4 4 4 4 4
4 6 7 7 8 7 1 1 1 5 4 2 3 3 2 2 4 1 2 3 2 2 1 1 1 1 2 2 3 4 4 4 4 4 4 4 4 4 4 4 4 3 4 4
5 5 8 9 9 5 2 1 3 6 2 3 2 3 3 3 4 4 2 2 2 2 2 1 1 1 1 2 3 4 4 4 4 3 3 4 4 4 4 4 3 4 3 4
6 5 6 6 7 4 3 2 2 3 4 3 3 2 3 3 2 2 2 2 2 2 2 1 1 1 1 2 3 4 4 3 3 3 3 4 4 4 3 4 4 4 4 4
4 3 3 4 2 4 2 0 3 4 3 3 3 3 3 2 2 2 2 2 2 2 1 1 1 1 1 1 2 3 3 2 3 4 4 4 4 3 4 4 4 4 4 4
2 2 3 4 2 1 1 2 3 3 3 3 3 3 2 2 2 2 2 2 2 2 2 2 2 2 2 2 2 3 2 2 3 3 4 3 3 3 3 3 3 4 4 4
2 2 4 5 2 2 2 2 3 3 2 3 3 2 2 2 2 2 2 2 2 2 2 2 2 2 3 2 3 2 3 3 4 4 4 4 3 3 3 4 3 4 4 3
4 4 4 4 2 3 3 4 3 2 2 2 3 3 3 2 3 3 3 3 3 3 3 3 3 3 3 3 2 2 3 4 4 4 4 3 3 3 3 3 3 2 4 3
Wind_Direction
174 203 203 202 223 259 243 235 238 231 196 221 234 251 238 210 207 213 208 205 204 201 194 189 192 195 188 184 189 176 183 175 169 174 185 184 174 178 163 153 164 168 170 156
186 210 228 203 199 209 219 234 234 196 182 234 249 261 238 209 213 216 214 208 206 202 197 190 194 193 195 194 201 195 195 190 185 187 192 184 177 189 160 194 200 198 186 174
220 144 174 197 198 210 227 240 237 229 209 222 255 245 217 204 210 213 220 221 212 206 206 196 197 199 198 200 203 208 206 198 194 189 183 162 160 178 182 198 196 201 202 199
223 215 202 213 221 231 235 244 239 230 234 229 244 270 209 196 205 212 213 215 216 208 208 201 200 201 200 202 203 208 206 204 196 191 199 205 212 213 215 201 185 191 200 202
188 198 219 227 235 239 227 193 219 231 250 251 230 261 210 183 214 212 209 209 210 207 205 202 202 203 203 198 199 206 205 203 197 204 204 216 223 227 212 199 194 201 196 207
220 212 249 256 200 203 161 172 186 215 241 250 232 250 241 186 230 220 204 202 202 203 202 200 195 199 202 194 192 199 200 196 197 207 209 215 219 224 220 222 214 209 199 210
208 206 198 202 181 176 210 229 226 213 216 235 179 247 258 45 273 256 222 204 199 198 200 197 194 197 201 197 197 198 199 198 199 206 213 216 221 226 228 231 227 225 215 213
214 201 184 201 229 216 214 243 268 279 271 249 202 244 239 56 280 253 221 203 195 194 198 197 196 195 197 199 200 202 202 204 203 210 216 219 219 228 238 239 239 232 234 231
228 188 142 192 230 238 212 228 282 282 273 270 233 229 224 193 208 201 199 191 191 192 193 196 195 196 195 197 199 200 200 203 203 212 216 217 220 222 230 237 237 240 231 223
257 226 168 162 188 207 268 239 223 247 268 266 250 248 228 187 197 200 207 204 197 194 194 194 193 194 194 194 197 198 203 205 206 212 212 211 215 217 227 230 227 233 228 216
237 231 181 182 215 212 193 208 234 248 268 283 285 270 42 287 239 219 215 207 198 197 196 192 185 185 189 189 191 195 202 208 210 215 216 213 212 214 218 225 229 230 222 222
223 251 227 206 177 278 243 240 233 249 248 257 281 302 81 284 288 264 235 200 186 191 192 184 179 179 183 187 190 196 201 204 208 215 216 214 209 208 213 217 220 223 223 227
190 234 228 196 181 188 214 224 240 254 260 252 257 260 118 215 271 284 264 217 186 182 179 180 180 183 186 188 190 197 203 206 203 205 209 208 205 207 210 219 217 217 220 225
235 241 254 264 286 225 227 221 226 237 250 255 256 274 274 282 281 276 264 241 207 192 185 184 187 189 192 193 194 198 202 203 199 196 202 205 209 211 213 216 218 220 222 228
235 247 247 262 268 252 252 248 235 240 253 266 277 281 296 306 295 276 255 227 205 194 193 192 195 194 194 198 199 203 204 201 199 200 206 209 213 211 215 216 221 223 223 236
238 250 244 239 241 249 254 252 243 245 252 258 270 276 313 317 301 269 234 211 210 205 205 203 203 201 202 201 203 203 203 200 199 203 208 208 213 208 213 218 222 225 225 232
223 241 247 247 242 249 245 245 239 235 242 254 267 293 315 302 295 283 262 229 226 224 217 217 220 216 215 210 208 206 204 196 198 204 207 207 208 208 215 218 220 223 222 225
235 235 245 255 242 244 84 59 254 236 241 260 274 295 295 304 306 296 290 274 260 242 237 235 232 226 222 213 204 200 198 198 201 204 208 208 210 213 216 219 225 232 232 225
241 237 239 245 250 253 214 193 235 240 243 295 281 292 304 317 289 232 328 313 288 276 262 252 247 230 212 208 200 192 192 197 202 206 211 208 210 214 215 221 228 233 236 232
194 232 241 238 250 254 267 47 277 246 231 7 305 289 291 284 274 338 20 334 325 326 312 292 255 219 203 202 200 200 200 204 213 217 219 215 214 217 221 227 231 231 234 239
194 210 231 242 249 255 14 16 215 237 341 13 313 289 260 263 317 350 344 334 342 337 333 327 250 216 223 209 200 210 214 221 225 224 221 218 218 224 225 230 231 230 233 242
231 225 228 239 245 250 69 136 228 336 5 351 339 324 288 292 340 350 355 349 348 345 339 301 242 242 236 214 204 211 226 231 222 219 223 226 227 226 221 222 230 235 237 243
243 271 270 257 299 34 102 264 349 344 328 336 331 328 316 307 331 349 340 338 338 329 322 297 267 260 259 239 226 227 236 233 219 214 220 227 230 229 230 227 228 233 235 243
208 289 252 247 248 310 328 329 328 327 326 338 340 337 323 309 327 339 334 332 330 323 320 308 284 272 277 271 254 256 260 238 225 231 235 234 234 235 237 238 239 241 244 248
256 229 249 254 272 291 288 311 320 331 333 340 348 345 333 325 328 336 330 327 327 320 310 298 283 278 278 276 267 261 253 243 236 237 242 245 244 245 245 241 245 247 252 267
217 227 238 258 275 281 306 339 342 337 342 346 349 349 350 342 329 332 331 329 324 318 312 299 294 290 286 282 278 273 260 251 248 249 247 245 244 242 242 244 248 247 248 261